Overview Statistics Trail Chart Weather Telemetry Raw packets
 

This is the latest recevied weather packets stored in our database for station/object EA2AFZ-W. If no packets are shown the sender has not sent any weather packets the latest 10 day(s).

<< 3 4 5 6 7 8 9 >>
Time Temp. Humidity Pressure Rain* Wind** Luminosity Snow
1788399923 16.11° C 75% 1025 hPa 0 mm - - -
1788398120 16.67° C 75% 1025 hPa 0 mm - - -
1788396317 16.67° C 75% 1025 hPa 0 mm - - -
1788394516 17.22° C 74% 1025 hPa 0 mm - - -
1788392713 17.22° C 74% 1025 hPa 0 mm - - -
1788390911 17.78° C 74% 1025 hPa 0 mm - - -
1788389107 18.33° C 73% 1025 hPa 0 mm - - -
1788387365 18.89° C 71% 1025 hPa 0 mm - - -
1788385563 19.44° C 70% 1025 hPa 0 mm - - -
1788383761 20° C 70% 1025 hPa 0 mm - - -
1788381960 20.56° C 70% 1025 hPa 0 mm - - -
1788380156 20.56° C 66% 1025 hPa 0 mm - - -
1788378354 21.67° C 73% 1025 hPa 0 mm - - -
1788376551 22.78° C 73% 1024 hPa 0 mm - - -
1788374749 23.33° C 62% 1024 hPa 0 mm - - -
1788372947 23.89° C 57% 1024 hPa 0 mm - - -
1788371145 24.44° C 56% 1024 hPa 0 mm - - -
1788369342 25° C 56% 1023 hPa 0 mm - - -
1788367539 25.56° C 54% 1023 hPa 0 mm - - -
1788365738 26.11° C 53% 1023 hPa 0 mm - - -
1788363934 26.67° C 52% 1023 hPa 0 mm - - -
1788362132 26.67° C 53% 1023 hPa 0 mm - - -
1788360331 26.67° C 54% 1023 hPa 0 mm - - -
1788358528 26.11° C 55% 1023 hPa 0 mm - - -
1788356726 26.11° C 54% 1023 hPa 0 mm - - -

* Rain latest hour (hover to see other rain measurements)
** Current wind speed in m/s (hover to see current wind gust speed)